Location: Coffee Ditch
(40.9640°N, 122.7500°W)
Time: 00:22:44
(UTC+00:00)

Cosmos 1602 Rocket - Pass Details

Date: 19 December 2025
Orbit: 596 x 626 km, 82.5° (Epoch: 16 January)

Event Time Altitude Azimuth Distance (km) Brightness Sun altitude
Rises 13:29:34 0° 192° (SSW) 2,896 7.0 -22.1°
Reaches altitude 10° 13:31:48 10° 194° (SSW) 1,993 6.1 -21.7°
Maximum altitude 13:36:13 71° 278° (W) 665 3.4 -20.9°
Drops below altitude 10° 13:40:38 10° 3° (N) 2,000 6.1 -20.1°
Sets 13:42:53 0° 6° (N) 2,907 6.9 -19.7°
